Regional Weather Roundup
Issued by NWS Kansas City/Pleasant Hill, MO

Home | Current Version | Previous Version | Graphics & Text | Print | Product List | Glossary Off
Versions: 1 2 3 4 5 6 7 8 9 10 11 12 13 14 15 16 17 18 19 20 21 22 23 24 25 26 27 28 29 30 31 32 33 34 35 36 37 38 39 40 41 42 43 44 45 46 47 48 49 50

000
ASUS43 KEAX 010510
RWREAX

WEATHER ROUNDUP FOR EASTERN KANSAS AND NORTHWEST MISSOURI
NATIONAL WEATHER SERVICE KANSAS CITY/PLEASANT HILL MO
1200 AM CDT TUE SEP 01 2015

KSZ040-057-103>105-MOZ028-029-037-043-010600-
...KANSAS CITY METROPOLITAN AREA...

CITY           SKY/WX    TMP DP  RH WIND       PRES   REMARKS
K.C. INTL      CLEAR     76  69  79 S10       29.99R
K.C. DOWNTOWN  CLEAR     80  69  69 SW9       29.98R
LEES SUMMIT    CLEAR     77  67  71 S9        30.01R
OLATHE - IXD   CLEAR     74  69  85 S7        30.01R
OLATHE - OJC   CLEAR     74  69  85 S6        30.00R
LAWRENCE       CLEAR     76  70  82 S7        29.98R

$$

MOZ001>008-011>017-020>025-030>033-038>040-044>046-053-054-010600-
...NORTHERN AND CENTRAL MISSOURI...

CITY           SKY/WX    TMP DP  RH WIND       PRES   REMARKS
ST. JOSEPH     CLEAR     73  69  87 S5        29.97R
MOSBY          CLEAR     73  68  83 E3        29.99R
WARRENSBURG    CLEAR     73  68  83 S3        30.01R
WHITEMAN AFB   CLEAR     76  70  82 SW9       30.00S
CLINTON        CLEAR     79  72  78 S3        30.03R
SEDALIA        CLEAR     76  69  79 S10       30.04R
WARSAW         NOT AVBL
CHILLICOTHE      N/A     73  70  90 CALM      30.00R
KIRKSVILLE     CLEAR     74  68  81 S7        30.02R

$$

MOZ041-047>049-056>058-063>065-088>090-097-010600-
...EASTERN AND SOUTHERN MISSOURI...

CITY           SKY/WX    TMP DP  RH WIND       PRES   REMARKS
ST. LOUIS INTL PTCLDY    80  71  74 S6        30.06R
SPIRIT OF STL  FAIR      77  72  84 CALM      30.04R
COLUMBIA       CLEAR     74  70  87 S6        30.04R
JEFFERSON CITY CLEAR     78  70  76 E5        30.03R
ROLLA          CLEAR     75  69  81 S9        30.06R
OSAGE BEACH    CLEAR     75  68  78 S6        30.06R
SPRINGFIELD    CLEAR     74  68  81 S9        30.06S
BRANSON        CLEAR     72  68  88 CALM      30.09S
JOPLIN         CLEAR     74  69  85 SE7       30.04R
WEST PLAINS    CLEAR     74  68  81 S5        30.10S

$$

IAZ060-094-KSZ022-034>040-054-083-096-NEZ052-066-093-010600-
...KANSAS...SOUTHEAST NEBRASKA AND IOWA...

CITY           SKY/WX    TMP DP  RH WIND       PRES   REMARKS
TOPEKA         CLEAR     78  69  73 S10       29.97R
MANHATTAN      CLEAR     79  68  69 S8        29.94R
EMPORIA        CLEAR     75  69  81 S15       29.98S
CHANUTE        PTCLDY    76  70  82 SE8       30.01R
WICHITA        CLEAR     76  66  71 S10       29.97R
OMAHA          CLEAR     75  69  81 S7        29.92S
LINCOLN        CLEAR     72  67  84 S8        29.93S
FALLS CITY     CLEAR     75  69  81 S8        29.94R
LAMONI         CLEAR     74  68  81 S7        29.98S
DES MOINES     PTCLDY    75  70  84 S6        29.95S

$$




USA.gov is the U.S. government's official web portal to all federal, state and local government web resources and services.